Regional Weather Roundup
Issued by NWS Newport/Morehead, NC

Current Version | Previous Version | Graphics & Text | Print | Product List | Glossary Off
Versions: 1 2 3 4 5 6 7 8 9 10 11 12 13 14 15 16 17 18 19 20 21 22 23 24 25 26 27 28 29 30 31 32 33 34 35 36 37 38 39 40 41 42 43 44 45 46 47 48 49 50

958
ASUS42 KMHX 260725
RWRMHX
WEATHER ROUNDUP FOR EASTERN NORTH CAROLINA
NATIONAL WEATHER SERVICE NEWPORT/MOREHEAD CITY NC
300 AM EDT TUE JUL 26 2016

NOTE: "FAIR" INDICATES FEW OR NO CLOUDS BELOW 12,000 FEET
WITH NO SIGNIFICANT WEATHER AND/OR OBSTRUCTIONS TO VISIBILITY

NCZ015>017-031-032-045>047-102-103-260800-
NORTH COAST

CITY           SKY/WX    TMP DP  RH WIND       PRES   REMARKS
EDENTON        MOCLDY    82  73  72 SW10      29.99S
ELIZABETH CITY CLEAR     80  73  79 SW13      29.97F
KITTY HAWK     PTSUNNY   82  74  77 SW10G18   29.96F
MANTEO           N/A     81  77  88 W16       29.98F

$$

NCZ045>047-081-094-103-104-260800-
CENTRAL COAST

CITY           SKY/WX    TMP DP  RH WIND       PRES   REMARKS
FRISCO         CLOUDY    81  76  84 W10       30.00F

$$

NCZ095-097-098-100-101-260800-
SOUTHERN COAST

CITY           SKY/WX    TMP DP  RH WIND       PRES   REMARKS
BEAUFORT       PTCLDY    82  75  79 SW14      30.01F
CEDAR ISLAND   NOT AVBL
JACKSONVILLE   PTCLDY    78  73  84 SW7       30.01F
PINEY ISLAND   NOT AVBL
WILMINGTON     CLEAR     78  73  84 SW6       30.02F


$$

NCZ011>013-027>030-043-044-078>080-089-090>093-098-260800-
COASTAL PLAIN

CITY           SKY/WX    TMP DP  RH WIND       PRES   REMARKS
AHOSKIE        CLEAR     77  73  87 S5        29.97F
CLINTON        CLOUDY    77  74  90 CALM      30.01F
ELIZABETHTOWN  PTCLDY    78  73  86 SW6       30.01F
GOLDSBORO      CLOUDY    79  77  95 SW8       29.99F
GREENVILLE     CLOUDY    79  73  83 SW10      30.01F
HAVELOCK       CLOUDY    79  73  82 SW8       30.02F
KENANSVILLE    NOT AVBL
KINSTON        PTCLDY    79  73  83 SW8       30.01S
NEW BERN       PTCLDY    79  73  82 SW8       30.02F
RICHLANDS      PTCLDY    77  74  90 SW7       30.02F
ROCKY MOUNT    CLOUDY    79  73  82 S9        29.98F
WASHINGTON     NOT AVBL
WHITEVILLE     CLEAR     77  73  87 SW3       30.02F

$$

AMZ130-135-150-152-154-156-158-170-250-252-270-ANZ085-086-088-633-658-670-260800-
MARINE OBSERVATIONS

STATION/POSITION TIME  TEMP    WIND        PRES    WAVE   SWELL
                       AIR SEA DIR/SP/G            HT/PER HT/PER
                 (UTC) (F)     (DEG/KT/KT) (MB)    (FT/S) (FT/S)
CHESAPEAKE LIGHT NOT AVBL
64 E VA BEACH    0650   82 80  230/ 17/ 19 1014.3    5/ 5
DUCK             0700   82 62  230/ 20/ 22 1014.4
2 E DUCK         0611      66                N/A     2/ 9
OREGON INLET     0700   82 85  230/ 17/ 23 1015.2
13E OREGON INLT  0700      81                N/A     3/ 5   2/ 9
HATTERAS CG      0700   81 83  230/  8/ 13 1015.7
DIAMOND BUOY     0650   84 85  230/ 19/ 23 1015.6    5/ 5
CAPE LOOKOUT     0700   83     230/ 12/ 15 1015.9
BEAUFORT LAB     0700   83 84  240/  7/ 14 1015.7
30 SE NEW RVR IN 0608   84 85  240/ 17/ 21 1016.7
30 SE NEW RVR IN 0625      85                N/A     4/ 5
27 SE WRIGHTSVLE 0608   84 85  230/ 16/ 19 1017.2
5 SE WRIGHTSVLE  0608   82 82  250/ 12/ 14 1017.9
225 S CAPE HAT   0650   83 84  190/  6/  8 1018.8    2/ 8   2/ 8
41 SE CHARLESTON 0650   85 86  220/ 12/ 16 1016.9    2/ 4   2/ 8

$$




USA.gov is the U.S. government's official web portal to all federal, state and local government web resources and services.